Flag for U.S.A. Weather past 2 weeks in Bozeman, Montana, U.S.A.

Now
67 °F

Overcast.


Feels Like: 67 °F
Forecast: 51 / 72 °F
Wind: 5 mph from Northwest

Location: Gallatin Field

Current Time: Sep 22, 2014 at 1:22:50 PM

Latest Report: Sep 22, 2014 at 12:56 PM


Visibility: 10 mi

Pressure: 29.98 "Hg

Humidity: 59%

Dew point: 52 °F

Location of BozemanLocation

Historic Weather in Bozeman — Graph

°F

Bozeman temperature yesterday

Maximum temperature yesterday: 76 °F (at 4:56 PM)
Minimum temperature yesterday: 37 °F (at 6:56 AM)
Average temperature yesterday: 58 °F

Past Weeks' High & Low Weather Summary

 TemperatureHumidityPressure
High84 °F (Sep 17, 3:56 PM)96% (Sep 11, 5:04 AM)30.53 "Hg (Sep 11, 5:04 AM)
Low23 °F (Sep 12, 3:56 AM)12% (Sep 7, 3:56 PM)29.68 "Hg (Sep 8, 4:56 PM)
Average53 °F63%30.06 "Hg
* Reported Sep 7 1:56 PM — Sep 22 11:56 AM, Bozeman, Weather by CustomWeather, © 2014

Note: Actual official high and low records may vary slightly from our data, if they occured in-between our weather recording intervals... More about our weather records

Advertising

Bozeman weather history for previous 24 hours

 ConditionsComfort  
Time TempWeatherWind HumidityBarometerVisibility
11:56 AM
Sep 22
65 °FPartly sunny.3 mph59%29.99 "Hg10 mi
10:56 AM63 °FPartly sunny.3 mph68%30.00 "Hg10 mi
9:56 AM60 °FPartly sunny.No wind75%30.01 "Hg10 mi
8:56 AM55 °FPartly sunny.No wind83%30.02 "Hg10 mi
7:56 AM53 °FClear.No wind89%30.01 "Hg10 mi
6:56 AM53 °FLight rain. Overcast.No wind89%29.99 "Hg10 mi
5:56 AM53 °FPassing clouds.5 mph86%29.98 "Hg10 mi
4:56 AM52 °FOvercast.5 mph86%29.99 "Hg10 mi
3:56 AM53 °FClear.6 mph80%29.98 "Hg10 mi
2:56 AM51 °FClear.6 mph83%29.98 "Hg10 mi
1:56 AM55 °FClear.6 mph72%29.99 "Hg10 mi
12:56 AM54 °FPassing clouds.3 mph74%29.99 "Hg10 mi
11:56 PM
Sep 21
56 °FClear.3 mph70%30.01 "Hg10 mi
10:56 PM58 °FClear.5 mph65%30.01 "Hg10 mi
9:56 PM59 °FClear.No wind67%30.03 "Hg10 mi
8:56 PM58 °FClear.5 mph65%30.05 "Hg10 mi
7:56 PM62 °FSunny.8 mph58%30.06 "Hg10 mi
6:56 PM70 °FSunny.3 mph46%30.06 "Hg10 mi
5:56 PM73 °FSunny.3 mph40%30.04 "Hg10 mi
4:56 PM76 °FSunny.3 mph33%30.05 "Hg10 mi
3:56 PM75 °FSunny.No wind33%30.06 "Hg10 mi
2:56 PM73 °FSunny.No wind36%30.08 "Hg10 mi
1:56 PM69 °FSunny.3 mph39%30.11 "Hg10 mi
Weather by CustomWeather, © 2014

See weather overviewHow to use our weather pages